Regional Weather Roundup
Issued by NWS

Home | Current Version | Previous Version | Graphics & Text | Print | Product List | Glossary On
Versions: 1 2 3 4 5 6 7 8 9 10 11 12 13 14 15 16 17 18 19 20 21 22 23 24 25 26 27 28 29 30 31 32 33 34 35 36 37 38 39 40 41 42 43 44 45 46 47 48 49 50
000
ASUS44 KMEG 220600
RWRTN
TENNESSEE HOURLY STATE WEATHER ROUNDUP
NATIONAL WEATHER SERVICE MEMPHIS TN
100 AM CDT WED OCT 22 2014

TNZ002-004-019-021-049-052-054-088>092-220700-
WEST TENNESSEE

CITY           SKY/WX    TMP DP  RH WIND       PRES   REMARKS
MEMPHIS INTL   CLEAR     60  47  61 E8        30.11S
NWS MEMPHIS      N/A     56 N/A N/A MISG        N/A
JACKSON        CLEAR     53  45  74 NE6       30.13R
DYERSBURG      CLEAR     54  37  54 NE3       30.16R
UNION CITY     CLEAR     50  45  81 NE7       30.14S
PARIS          CLEAR     46  41  81 NE3       30.15F
LEXINGTON      CLEAR     50  45  81 NE5       30.12S
SAVANNAH       CLEAR     50  46  87 NE3       30.11S
$$

TNZ008-025-027-028-033-062-065-066-220700-
NORTH MIDDLE TENNESSEE

CITY           SKY/WX    TMP DP  RH WIND       PRES   REMARKS
NASHVILLE      CLEAR     51  43  74 N5        30.14F
CLARKSVILLE    CLEAR     48  42  80 N5        30.15F
CROSSVILLE     CLEAR     45  38  76 N3        30.11F
$$

TNZ061-075-076-078-094-096-097-220700-
SOUTH MIDDLE TENNESSEE

CITY           SKY/WX    TMP DP  RH WIND       PRES   REMARKS
SHELBYVILLE    CLEAR     48  43  81 N3        30.13S
$$

TNZ017-018-042-046-047-220700-
NORTHEAST TENNESSEE

CITY           SKY/WX    TMP DP  RH WIND       PRES   REMARKS
TRI CITIES     CLOUDY    49  40  71 NW6       30.07F
ELIZABETHTON   CLOUDY    46  39  76 SW6       30.07F
$$

TNZ012-013-036-069-073-074-220700-
CENTRAL EAST TENNESSEE

CITY           SKY/WX    TMP DP  RH WIND       PRES   REMARKS
KNOXVILLE      CLEAR     48  41  76 N7        30.09S
OAK RIDGE      CLEAR     45  41  86 CALM      30.12S
GATLINBURG     CLEAR     43  39  87 CALM      30.09S
$$

TNZ083-085-099-220700-
SOUTHEAST TENNESSEE

CITY           SKY/WX    TMP DP  RH WIND       PRES   REMARKS
CHATTANOOGA    CLEAR     52  41  66 N8        30.10R
$$

SKY/WX REPORTED AS FAIR MEANS FEW OR NO CLOUDS BELOW
12 THOUSAND FEET.




USA.gov is the U.S. government's official web portal to all federal, state and local government web resources and services.